Weather Roundup
Issued by NWS Chicago, IL

Home | Current Version | Previous Version | Text Only | Print | Product List | Glossary On
Versions: 1 2 3 4 5 6 7 8 9 10 11 12 13 14 15 16 17 18 19 20 21 22 23 24 25 26 27 28 29 30 31 32 33 34 35 36 37 38 39 40 41 42 43 44 45 46 47 48 49 50
000
NZUS59 KLOT 041412
HRRLOT

CHICAGO AREA WEATHER ROUNDUP
NATIONAL WEATHER SERVICE CHICAGO/ROMEOVILLE IL
800 AM CST SUN DEC 04 2016

NOTE: "FAIR" INDICATES FEW OR NO CLOUDS BELOW 12,000 FEET WITH NO
SIGNIFICANT WEATHER AND/OR OBSTRUCTIONS TO VISIBILITY.

* THESE STATIONS ARE NOT UNDER NWS QUALITY CONTROL. THEY ALSO MAY NOT
  REPORT WEATHER SUCH AS PRECIPITATION OR FOG.

ILZ005-006-012>014-019>023-041500-
NORTHEAST ILLINOIS

CITY           SKY/WX    TMP DP  RH WIND       PRES   REMARKS
OHARE          CLOUDY    33  26  75 E3        30.15F
MIDWAY         CLOUDY    33  24  69 E6        30.16F WCI  28
AURORA         CLOUDY    33  27  78 E8        30.14F WCI  26
LANSING*       CLOUDY    32  29  90 E7        30.16F WCI  25
JOLIET*        CLOUDY    33  29  85 E6        30.14F WCI  28
WAUKEGAN       CLOUDY    32  27  81 CALM      30.14F
DUPAGE AIRPORT CLOUDY    32  25  75 E5        30.14F WCI  27
WHEELING       CLOUDY    33  25  72 CALM      30.17F
KANKAKEE*      CLOUDY    32  28  86 E7        30.15F WCI  26
MORRIS*        CLOUDY    32  28  86 CALM      30.13F
LEWIS AIRPORT* CLOUDY    31  30  94 E5        30.14F WCI  27
NORTHERLY ISL    N/A     33  25  72 S2          N/A
$$

WIZ051-052-058>065-066-070>072-041500-
SOUTHEAST WISCONSIN

CITY           SKY/WX    TMP DP  RH WIND       PRES   REMARKS
MILWAUKEE      CLOUDY    33  26  75 SE3       30.14F
KENOSHA*       CLOUDY    32  27  81 SE3       30.14F
RACINE*        CLOUDY    32  26  78 CALM      30.16F
BURLINGTON     MOCLDY    31  27  85 CALM      30.13F
WAUKESHA       CLOUDY    28  25  86 CALM      30.14F
WEST BEND      CLOUDY    30  28  93 CALM      30.13F
$$

INZ001>003-010>013-019-020-041500-
NORTHWEST INDIANA

CITY           SKY/WX    TMP DP  RH WIND       PRES   REMARKS
GARY*          CLOUDY    34  28  80 SE3       30.18S
MICHIGAN CITY* NOT AVBL
RENSSELAER*    NOT AVBL
VALPARAISO     CLOUDY    33  27  78 E5        30.17S WCI  29
$$

LMZ740>746-041500-
SOUTHERN LAKE MICHIGAN

STATION/POSITION TIME  SKY/WX   TEMP WIND        PRES    VSBY
                                AIR  DIR/SP/G
                 (UTC)          (F)  (DEG/KT/KT) (MB)    (MI)
HARRISON CRIB    1340            35  190/  8/  9   N/A
BURNHAM HARBOR   1400            33  180/  3/  5   N/A
CALUMET HARBOR   1348            32  150/  4/  6 1021.0R
BURNS HARBOR     1340            33  160/  5/ 10 1022.0F
MICHIGAN CITY    NOT AVBL
$$

ABBREVIATIONS USED IN REMARKS
   TC - TEMPERATURE IN CELSIUS
  WCI - WIND CHILL INDEX
   HX - HEAT INDEX
  VSB - VISIBILITY
$$




USA.gov is the U.S. government's official web portal to all federal, state and local government web resources and services.